Wind_Speed
7 3 4 5 8 5 6 6 6 9 13 16 15 11 11 11 7 6 6 8 8 5 7 7 8 8 9 11 11 11 11 13 14 13 15 16 17 18 18 19 20 20 20 21
1 1 1 5 7 4 4 4 7 10 12 15 9 7 7 5 6 7 7 8 9 7 6 5 5 7 8 10 11 12 12 11 13 14 14 15 17 16 17 20 21 21 21 20
5 1 5 8 4 3 5 6 8 14 13 7 10 5 7 9 12 9 7 5 6 7 7 6 5 7 9 9 10 11 12 11 11 13 13 15 16 17 17 19 21 22 22 22
5 4 3 3 5 4 5 5 10 13 10 3 8 2 5 7 9 9 9 6 6 7 8 8 8 9 10 11 10 9 10 12 13 15 17 18 18 18 20 20 21 21 22 22
3 3 4 5 3 4 3 6 6 6 4 4 7 3 2 5 10 12 9 9 8 8 10 10 10 11 12 11 9 10 11 15 21 25 24 23 22 24 25 24 22 21 22 22
8 8 7 3 3 2 4 3 0 4 3 2 2 8 1 3 11 12 9 9 8 9 10 11 12 12 12 12 11 12 14 20 29 33 30 28 27 26 27 26 25 23 23 23
7 5 5 4 3 1 2 1 1 2 3 3 2 6 1 5 12 12 9 9 9 7 10 10 12 14 16 17 19 20 24 31 34 33 28 26 25 25 25 26 26 24 24 22
5 3 3 4 3 1 3 6 2 3 0 4 6 1 3 8 9 9 12 12 11 11 12 13 16 19 20 21 23 27 32 36 36 31 25 23 21 22 23 23 24 24 24 23
8 4 5 5 4 3 2 2 3 2 0 2 3 3 5 2 5 9 11 17 18 18 18 18 20 21 24 26 29 34 38 39 31 25 23 21 20 20 21 22 23 24 25 25
9 4 6 6 6 5 5 4 3 2 2 1 4 4 4 6 8 12 13 21 23 23 23 23 24 26 28 30 31 33 32 30 26 23 21 20 20 20 21 23 24 26 27 28
14 11 4 6 7 5 6 5 4 4 2 4 1 4 7 6 7 11 18 22 24 22 21 22 22 23 25 27 28 28 28 28 24 22 21 21 21 22 22 22 23 25 26 27
18 9 7 7 7 8 8 7 8 4 5 4 2 6 6 5 8 15 20 23 22 21 21 22 23 23 23 24 25 26 25 25 25 23 23 22 22 22 22 21 21 21 22 22
19 10 6 4 10 14 15 13 13 9 7 11 5 4 7 9 13 19 20 17 17 21 23 25 25 26 28 29 29 29 27 23 24 23 22 21 22 22 21 21 21 20 19 19
15 14 10 9 4 5 9 12 15 15 10 10 22 20 18 15 16 16 17 13 19 23 25 25 24 26 27 28 29 27 26 23 22 21 21 22 21 22 23 23 22 20 19 19
19 15 18 15 12 14 15 16 18 24 22 22 25 25 19 15 14 16 16 15 20 26 26 25 26 27 28 27 27 26 25 24 23 22 22 21 22 23 24 24 23 23 23 23
24 15 18 19 18 20 23 24 25 27 29 31 30 30 13 11 13 17 16 16 20 26 27 29 30 29 29 29 29 27 25 23 24 23 22 22 23 25 25 25 25 25 25 25
24 24 17 13 18 18 21 27 27 27 28 27 31 14 12 13 18 20 14 16 23 28 32 34 34 31 29 29 30 29 28 26 24 24 24 24 26 26 27 27 27 26 25 26
23 24 19 6 9 4 17 19 20 20 18 21 21 15 11 15 20 22 19 20 28 33 36 37 35 33 32 31 32 32 30 28 27 26 27 28 29 30 31 30 30 29 28 27
23 24 17 10 19 19 20 18 18 21 22 21 21 17 17 19 20 21 21 25 33 37 40 38 35 34 35 35 34 34 33 32 31 29 31 32 34 34 35 35 34 33 33 31
30 29 30 20 9 11 11 11 13 17 31 21 20 18 12 15 23 22 20 30 35 40 43 42 38 39 37 37 40 38 34 34 34 32 34 36 37 38 38 38 38 38 37 36
37 34 38 34 21 19 23 16 16 16 24 12 14 15 18 22 23 25 32 35 38 42 45 46 47 45 41 42 46 45 39 36 35 37 38 39 40 41 41 41 41 41 41 42
37 34 31 35 19 22 26 25 29 24 20 18 17 21 24 28 28 32 36 39 42 45 46 47 49 50 52 52 52 45 42 38 38 40 42 43 41 42 43 44 43 44 44 45
33 40 37 36 35 24 19 25 23 26 22 20 23 26 28 32 34 35 39 41 44 45 48 51 54 56 53 49 42 43 43 45 46 46 47 49 47 45 46 46 46 47 47 47
38 33 36 36 39 37 36 35 34 32 30 28 28 30 33 34 40 43 43 45 48 51 53 51 53 52 50 47 44 40 40 43 45 47 43 43 47 49 47 47 49 48 47 46
42 37 41 44 44 43 44 40 35 30 29 33 34 36 35 43 44 46 51 53 55 55 51 54 54 53 54 49 47 46 44 42 42 43 43 43 43 45 49 49 48 47 44 42
43 43 42 47 44 44 40 36 35 36 39 38 38 43 46 47 49 53 57 58 60 55 54 54 52 51 49 47 47 45 43 44 45 47 45 41 38 39 41 42 43 42 39 38
Wind_Direction
91 47 68 352 323 320 313 312 308 316 319 319 321 323 301 289 316 347 322 305 302 306 304 313 306 294 294 297 298 300 298 298 304 305 306 305 304 306 305 306 305 305 308 310
131 298 316 324 307 291 272 287 306 311 321 318 326 344 26 29 7 339 328 305 306 308 321 333 321 304 296 295 299 302 306 307 308 309 307 310 307 308 307 304 303 307 306 304
235 290 287 302 299 320 315 321 317 321 332 325 356 70 42 19 4 355 347 325 305 314 322 330 332 315 308 304 311 311 315 319 318 316 317 313 311 311 308 303 304 308 307 306
241 251 288 289 309 332 342 337 328 323 336 35 23 6 21 11 29 9 354 345 325 314 317 322 322 311 306 308 309 318 324 328 323 315 314 313 311 310 304 304 305 306 306 305
188 217 273 300 312 337 332 331 336 358 40 79 42 11 23 357 10 3 349 341 335 323 320 319 317 312 308 306 309 316 322 328 327 318 308 304 304 302 299 300 301 306 305 304
240 268 282 267 293 317 337 330 29 79 78 69 84 356 205 323 347 350 357 351 339 330 328 326 331 331 320 309 308 310 316 321 320 317 307 296 293 292 293 295 297 300 302 304
227 235 242 240 212 184 27 104 96 46 12 217 263 320 267 351 339 352 3 356 338 340 330 328 334 337 332 318 311 311 308 313 318 317 309 300 293 291 293 291 290 291 295 300
196 207 186 176 170 139 64 62 94 156 315 300 304 314 15 348 358 10 5 359 343 336 333 324 321 322 320 317 311 307 312 318 318 316 313 307 301 299 300 298 291 288 291 293
197 231 209 201 187 165 153 103 100 82 344 305 332 343 323 311 340 341 347 342 338 329 323 319 315 313 309 306 304 303 311 317 314 311 310 309 306 304 303 302 298 296 294 291
203 210 211 211 211 208 183 163 144 145 128 292 284 276 246 273 313 321 306 319 329 334 330 325 321 315 309 305 301 306 313 312 311 307 305 306 306 306 305 303 301 298 295 291
210 216 201 200 206 199 198 192 173 149 160 156 273 248 223 288 317 303 302 319 327 330 330 326 322 316 313 313 314 315 310 309 311 304 302 303 304 305 303 302 300 299 297 295
208 221 216 217 216 223 222 212 194 195 185 203 227 275 206 234 286 308 313 325 335 339 339 334 328 325 322 320 320 319 308 306 306 303 303 303 304 306 307 307 305 302 301 300
204 210 182 218 233 232 228 221 213 218 228 221 189 233 220 269 292 301 315 330 335 331 332 331 328 326 322 319 317 315 312 304 299 301 305 306 309 311 311 310 308 307 305 302
202 214 208 199 170 183 203 208 215 225 234 239 247 275 269 285 285 293 310 312 327 333 334 331 329 323 318 318 317 317 311 304 300 302 303 305 307 309 311 312 310 308 304 301
211 223 223 225 248 252 252 249 246 249 259 255 279 285 302 292 276 298 298 296 323 330 331 329 326 323 319 320 319 318 315 308 304 302 302 302 304 307 310 311 312 310 308 305
221 231 233 237 241 257 261 260 258 261 262 265 274 287 300 254 286 305 292 290 315 326 329 328 325 323 319 318 319 319 314 307 304 301 299 299 302 306 309 312 314 312 311 309
222 228 238 250 255 254 259 259 258 262 267 272 266 298 271 269 298 305 292 300 312 321 328 328 324 321 319 319 318 316 313 308 305 300 296 297 300 304 307 311 312 310 310 310
227 228 232 244 219 247 256 262 262 258 263 268 263 288 282 278 291 297 288 292 309 320 325 326 321 317 319 320 319 315 310 306 302 299 297 297 299 301 304 307 308 308 309 309
223 221 215 212 216 261 253 251 255 273 277 271 271 278 284 290 282 293 287 290 310 316 318 321 317 314 316 314 314 314 307 301 298 300 298 296 297 300 302 304 305 306 306 306
225 226 227 212 218 215 260 247 232 242 267 289 279 276 269 278 286 304 292 298 308 311 311 314 309 312 311 313 307 308 308 299 297 299 295 294 296 297 299 300 301 302 302 302
214 218 222 224 236 251 240 230 238 239 278 280 278 262 271 287 290 296 299 304 305 306 306 308 307 303 305 307 310 301 301 302 298 293 290 290 291 294 295 294 295 296 297 299
218 203 217 224 229 257 267 242 242 279 279 270 268 258 269 292 292 296 298 301 303 303 303 303 303 304 304 305 308 300 294 299 294 292 290 290 291 292 291 291 291 291 293 295
220 230 234 229 244 256 261 270 270 275 272 272 272 268 278 288 291 292 296 295 297 299 301 301 301 303 304 310 306 298 297 293 292 292 292 287 286 288 290 288 288 288 290 291
233 234 235 245 256 263 267 271 271 273 276 277 271 270 275 284 291 294 295 295 297 299 300 298 299 303 308 312 311 306 302 298 296 296 295 290 284 283 285 287 287 286 287 287
245 246 249 256 262 266 265 269 275 276 277 278 274 277 280 291 293 298 299 298 299 302 301 303 303 303 305 307 306 305 305 302 298 294 292 291 288 284 281 280 281 283 284 282
242 246 244 255 268 270 272 271 270 272 276 273 279 286 293 292 295 299 299 298 298 298 298 298 300 300 300 301 301 302 302 300 299 299 300 297 290 284 282 281 281 282 279 276
Height
3205 3206 3206 3206 3207 3207 3207 3206 3205 3204 3203 3201 3199 3198 3197 3197 3196 3196 3196 3196 3196 3198 3198 3198 3198 3198 3198 3197 3197 3198 3198 3197 3196 3196 3195 3194 3193 3192 3191 3189 3187 3185 3184 3182
3206 3206 3206 3206 3206 3206 3205 3205 3204 3203 3202 3200 3198 3196 3196 3195 3196 3196 3195 3195 3195 3195 3196 3197 3197 3196 3195 3195 3195 3195 3194 3194 3194 3193 3192 3191 3189 3189 3187 3185 3183 3182 3180 3178
3204 3205 3205 3205 3205 3204 3203 3203 3202 3201 3198 3197 3196 3196 3196 3196 3195 3194 3194 3194 3194 3194 3194 3195 3195 3194 3194 3193 3192 3191 3191 3192 3191 3190 3189 3187 3186 3184 3183 3181 3179 3177 3175 3174
3203 3204 3204 3204 3203 3203 3202 3201 3200 3198 3197 3196 3196 3197 3196 3196 3196 3195 3194 3194 3193 3193 3193 3194 3194 3193 3192 3191 3190 3190 3189 3188 3188 3187 3186 3184 3182 3180 3178 3176 3175 3173 3171 3169
3203 3202 3202 3202 3202 3201 3202 3200 3198 3197 3196 3196 3196 3197 3195 3196 3196 3196 3195 3193 3193 3192 3192 3192 3192 3191 3191 3189 3189 3188 3188 3187 3185 3183 3182 3179 3177 3175 3172 3171 3170 3169 3166 3164
3200 3200 3200 3200 3200 3200 3199 3199 3198 3197 3197 3197 3197 3198 3195 3195 3196 3195 3194 3193 3192 3191 3191 3190 3190 3190 3189 3187 3187 3186 3185 3183 3181 3177 3174 3172 3170 3168 3166 3164 3163 3161 3159 3158
3197 3198 3198 3198 3198 3199 3198 3198 3197 3199 3198 3198 3197 3196 3195 3195 3194 3193 3193 3192 3191 3191 3190 3189 3188 3187 3186 3185 3184 3182 3180 3178 3174 3170 3166 3164 3162 3161 3159 3158 3156 3155 3154 3153
3195 3197 3196 3196 3198 3198 3197 3197 3196 3199 3201 3198 3196 3196 3196 3195 3194 3193 3192 3191 3190 3189 3188 3187 3186 3184 3183 3182 3180 3177 3174 3171 3167 3163 3160 3158 3156 3154 3153 3152 3150 3149 3148 3147
3193 3194 3195 3196 3196 3198 3197 3197 3198 3198 3199 3198 3196 3196 3194 3194 3194 3192 3191 3190 3188 3187 3185 3184 3183 3181 3180 3178 3175 3172 3169 3164 3160 3157 3154 3152 3150 3148 3147 3145 3143 3142 3141 3140
3190 3192 3193 3194 3194 3196 3196 3198 3198 3197 3200 3199 3195 3193 3192 3192 3192 3191 3189 3187 3186 3183 3181 3179 3178 3176 3174 3172 3169 3165 3162 3158 3155 3152 3150 3148 3146 3144 3142 3140 3138 3135 3133 3131
3188 3191 3192 3192 3192 3193 3194 3194 3195 3196 3197 3198 3199 3191 3190 3190 3190 3189 3187 3185 3183 3181 3178 3175 3173 3170 3167 3164 3161 3157 3155 3152 3149 3147 3145 3143 3141 3139 3137 3134 3132 3129 3126 3123
3186 3187 3188 3190 3189 3190 3191 3191 3192 3193 3195 3195 3195 3189 3186 3187 3187 3186 3184 3181 3179 3176 3174 3172 3169 3165 3162 3159 3156 3153 3149 3145 3143 3141 3139 3137 3135 3133 3131 3129 3126 3123 3119 3116
3182 3184 3185 3187 3189 3187 3187 3188 3189 3190 3191 3190 3192 3184 3184 3183 3183 3182 3180 3178 3176 3174 3171 3168 3164 3160 3157 3154 3151 3147 3144 3141 3138 3136 3134 3131 3129 3127 3125 3123 3120 3117 3114 3111
3179 3179 3180 3180 3180 3182 3183 3184 3185 3187 3186 3184 3179 3180 3180 3180 3179 3178 3176 3175 3173 3170 3167 3164 3160 3157 3153 3148 3145 3141 3138 3135 3133 3131 3129 3126 3124 3122 3119 3116 3114 3111 3109 3107
3176 3176 3177 3177 3177 3178 3180 3181 3181 3179 3180 3178 3174 3173 3174 3175 3174 3173 3171 3170 3168 3166 3163 3159 3156 3152 3148 3143 3140 3136 3133 3129 3127 3125 3123 3120 3118 3116 3114 3111 3108 3105 3102 3101
3171 3173 3173 3174 3175 3174 3173 3173 3173 3172 3171 3169 3169 3167 3170 3169 3169 3168 3166 3165 3164 3161 3158 3154 3150 3146 3141 3138 3134 3131 3128 3125 3122 3120 3117 3115 3113 3111 3108 3105 3102 3099 3097 3094
3166 3168 3170 3170 3170 3171 3169 3163 3164 3165 3164 3164 3163 3164 3165 3164 3163 3162 3161 3160 3159 3156 3153 3148 3144 3140 3136 3132 3129 3125 3122 3119 3116 3114 3111 3109 3107 3105 3102 3099 3097 3093 3090 3087
3160 3163 3166 3167 3167 3167 3158 3158 3158 3157 3158 3157 3157 3159 3159 3159 3158 3156 3155 3155 3153 3150 3146 3142 3138 3134 3131 3127 3123 3120 3117 3113 3111 3108 3106 3103 3100 3098 3095 3092 3089 3086 3083 3079
3154 3156 3158 3159 3158 3153 3152 3152 3152 3151 3152 3151 3152 3153 3153 3153 3152 3152 3150 3149 3146 3143 3140 3137 3133 3129 3126 3122 3118 3114 3111 3107 3104 3103 3099 3096 3093 3090 3088 3085 3081 3079 3075 3072
3145 3149 3152 3151 3150 3145 3143 3144 3145 3147 3142 3147 3146 3147 3147 3147 3145 3146 3145 3143 3140 3136 3132 3129 3126 3123 3119 3116 3110 3107 3104 3099 3097 3095 3092 3088 3085 3082 3079 3076 3073 3069 3066 3063
3134 3139 3137 3142 3141 3132 3136 3138 3140 3142 3140 3140 3140 3141 3140 3140 3140 3138 3136 3134 3132 3128 3124 3120 3116 3114 3112 3108 3102 3098 3095 3092 3088 3084 3081 3079 3076 3072 3069 3066 3063 3059 3056 3052
3119 3126 3128 3136 3136 3126 3128 3130 3131 3132 3130 3133 3134 3133 3132 3132 3132 3130 3127 3125 3122 3119 3115 3112 3105 3102 3098 3096 3090 3086 3083 3083 3078 3075 3071 3068 3066 3062 3059 3055 3053 3049 3045 3042
3113 3112 3112 3114 3110 3117 3118 3119 3120 3121 3122 3124 3126 3125 3124 3123 3123 3121 3119 3117 3113 3109 3104 3100 3094 3089 3086 3083 3080 3074 3073 3070 3066 3063 3060 3056 3054 3051 3047 3042 3039 3036 3034 3029
3101 3104 3105 3105 3104 3109 3110 3112 3113 3114 3115 3117 3116 3116 3115 3114 3114 3111 3108 3105 3101 3097 3092 3087 3082 3077 3073 3072 3067 3064 3060 3056 3052 3047 3044 3042 3039 3036 3033 3029 3027 3024 3022 3018
3092 3097 3097 3095 3097 3099 3099 3102 3105 3105 3107 3107 3105 3106 3106 3103 3100 3098 3094 3091 3087 3082 3079 3074 3069 3063 3060 3057 3052 3048 3044 3040 3035 3031 3028 3026 3023 3021 3017 3014 3012 3009 3008 3005
3077 3082 3085 3083 3090 3091 3092 3093 3095 3097 3097 3095 3095 3094 3093 3089 3086 3084 3079 3076 3072 3069 3066 3061 3057 3051 3047 3043 3040 3037 3033 3027 3022 3017 3014 3012 3009 3005 3002 3000 2999 2996 2994 2992